SCP
0 0 0 0 0 0 0 0 0 0 0 0 0 0 0 0 0 0 0 0 0 0 0 0 0 0 0 0 0 0 0 0 0 0 0 0 0 0 0 0 0 0 0
0 0 0 0 0 0 0 0 0 0 0 0 0 0 0 0 0 0 0 0 0 0 0 0 0 0 0 0 0 0 0 0 0 0 0 0 0 0 0 0 0 0 0
0 0 0 0 0 0 0 0 0 0 0 0 0 0 0 0 0 0 0 0 0 0 0 0 0 0 0 0 0 0 0 0 0 0 0 0 0 0 0 0 0 0 0
0 0 0 0 0 0 0 0 0 0 0 0 0 0 0 0 0 0 0 0 0 0 0 0 0 0 0 0 0 0 0 0 0 0 0 0 0 0 0 0 0 0 0
0 0 0 0 0 0 0 0 0 0 0 0 0 0 0 0 0 0 0 0 0 0 0 0 0 0 0 0 0 0 0 0 0 0 0 0 0 0 0 0 0 0 0
0 0 0 0 0 0 0 0 0 0 0 0 0 0 0 0 0 0 0 0 0 0 0 0 0 0 0 0 0 0 0 0 0 0 0 0 0 0 0 0 0 0 0
0 0 0 0 0 0 0 0 0 0 0 0 0 0 0 0 0 0 0 0 0 0 0 0 0 0 0 0 0 0 0 0 0 0 0 0 0 0 0 0 0 0 0
0 0 0 0 0 0 0 0 0 0 0 0 0 0 0 0 0 0 0 0 0 0 0 0 0 0 0 0 0 0 0 0 0 0 0 0 0 0 0 0 0 0 0
0 0 0 0 0 0 0 0 0 0 0 0 0 0 0 0 0 0 0 0 0 0 0 0 0 0 0 0 0 0 0 0 0 0 0 0 0 0 0 0 0 0 0
0 0 0 0 0 0 0 0 0 0 0 0 0 0 0 0 0 0 0 0 0 0 0 0 0 0 0 0 0 0 0 0 0 0 0 0 0 0 0 0 0 0 0
0 0 0 0 0 0 0 0 0 0 0 0 0 0 0 0 0 0 0 0 0 0 0 0 0 0 0 0 0 0 0 0 0 0 0 0 0 0 0 0 0 0 0
0 0 0 0 0 0 0 0 0 0 0 0 0 0 0 0 0 0 0 0 0 0 0 0 0 0 0 0 0 0 0 0 0 0 0 0 0 0 0 0 0 0 0
0 0 0 0 0 0 0 0 0 0 0 0 0 0 0 0 0 0 0 0 0 0 0 0 0 0 0 0 0 0 0 0 0 0 0 0 0 0 0 0 0 0 0
0 0 0 0 0 0 0 0 0 0 0 0 0 0 0 0 0 0 0 0 0 0 0 0 0 0 0 0 0 0 0 0 0 0 0 0 0 0 0 0 0 0 0
0 0 0 0 0 0 0 0 0 0 0 0 0 0 0 0 0 0 0 0 0 0 0 0 0 0 0 0 0 0 0 0 0 0 0 0 0 0 0 0 0 0 0
0 0 0 0 0 0 0 0 0 0 0 0 0 0 0 0 0 0 0 0 0 0 0 0 0 0 0 0 0 0 0 0 0 0 0 0 0 0 0 0 0 0 0
0 0 0 0 0 0 0 0 0 0 0 0 0 0 0 0 0 0 0 0 0 0 0 0 0 0 0 0 0 0 0 0 0 0 0 0 0 0 0 0 0 0 0
0 0 0 0 0 0 0 0 0 0 0 0 0 0 0 0 0 0 0 0 0 0 0 0 0 0 0 0 0 0 0 0 0 0 0 0 0 0 0 0 0 0 0
0 0 0 0 0 0 0 0 0 0 0 0 0 0 0 0 0 0 0 0 0 0 0 0 0 0 0 0 0 0 0 0 0 0 0 0 0 0 0 0 0 0 0
0 0 0 0 0 0 0 0 0 0 0 0 0 0 0 0 0 0 0 0 0 0 0 0 0 0 0 0 0 0 0 0 0 0 0 0 0 0 0 0 0 0 0
0 0 0 0 0 0 0 0 0 0 0 0 0 0 0 0 0 0 0 0 0 0 0 0 0 0 0 0 0 0 0 0 0 0 0 0 0 0 0 0 0 0 0
0 0 0 0 0 0 0 0 0 0 0 0 0 0 0 0 0 0 0 0 0 0 0 0 0 0 0 0 0 0 0 0 0 0 0 0 0 0 0 0 0 0 0
0 0 0 0 0 0 0 0 0 0 0 0 0 0 0 0 0 0 0 0 0 0 0 0 0 0 0 0 0 0 0 0 0 0 0 0 0 0 0 0 0 0 0
0 0 0 0 0 0 0 0 0 0 0 0 0 0 0 0 0 0 0 0 0 0 0 0 0 0 0 0 0 0 0 0 0 0 0 0 0 0 0 0 0 0 0
0 0 0 0 0 0 0 0 0 0 0 0 0 0 0 0 0 0 0 0 0 0 0 0 0 0 0 0 0 0 0 0 0 0 0 0 0 0 0 0 0 0 0
0 0 0 0 0 0 0 0 0 0 0 0 0 0 0 0 0 0 0 0 0 0 0 0 0 0 0 0 0 0 0 0 0 0 0 0 0 0 0 0 0 0 0
Wind_Speed
4 4 9 10 11 11 11 11 11 11 12 13 14 15 16 16 16 15 15 15 16 17 17 18 18 18 18 18 18 18 18 18 18 19 19 20 20 20 20 20 17 13 21
7 6 10 11 12 11 11 11 11 11 12 13 14 15 15 15 15 15 15 15 15 16 17 18 18 18 17 17 17 18 18 18 18 18 18 17 19 20 20 19 18 14 21
9 7 9 11 12 12 11 11 10 11 11 12 14 15 15 15 15 15 14 14 15 16 17 17 17 17 17 16 17 17 17 17 17 17 15 8 12 19 20 19 19 20 20
10 8 8 11 12 12 11 11 11 11 11 12 13 14 15 15 15 15 14 14 15 15 16 16 17 17 16 16 16 17 17 17 16 15 8 7 8 18 19 20 20 20 20
8 7 9 11 12 12 12 11 11 11 11 12 13 14 15 15 15 14 13 13 14 15 15 16 16 16 16 16 16 16 17 16 16 12 8 7 8 17 20 20 20 19 19
8 7 9 11 13 13 12 12 11 11 11 12 13 14 15 14 14 13 13 13 13 14 15 15 16 16 15 16 16 16 16 16 12 7 7 7 7 17 19 19 19 19 19
8 7 8 11 12 12 12 12 12 11 11 12 13 13 14 14 13 13 13 13 13 13 14 15 15 15 15 15 15 15 15 14 8 7 6 6 10 18 18 18 18 18 18
9 7 7 10 10 10 11 11 11 11 11 12 12 13 13 13 13 12 12 12 12 13 13 14 14 14 14 15 15 14 13 11 9 7 6 6 14 17 17 17 17 17 17
7 7 6 6 7 9 9 9 9 9 10 11 11 11 11 11 12 11 11 12 12 12 13 13 13 13 14 14 14 14 13 12 6 5 6 5 13 16 17 16 16 16 16
7 7 6 5 5 5 6 8 9 9 9 9 10 10 10 10 10 10 8 10 11 12 12 12 13 13 13 13 13 13 12 9 6 5 4 7 14 15 15 15 15 15 15
8 7 7 6 5 5 5 6 7 8 8 9 8 10 8 5 5 6 7 9 10 11 12 12 12 13 12 12 12 12 9 4 5 4 3 10 14 14 14 14 13 13 13
12 11 8 8 7 6 5 4 4 4 5 5 5 5 4 4 4 5 7 8 9 9 10 11 12 11 8 4 6 8 3 4 4 3 4 11 13 13 12 12 12 12 12
11 11 10 10 8 7 5 4 3 3 3 4 5 5 5 4 3 3 3 4 5 6 5 6 6 4 4 3 3 3 4 3 2 2 3 10 12 12 12 11 11 11 11
9 12 11 11 9 8 6 5 4 3 3 3 4 6 5 3 3 3 2 3 3 2 4 3 3 4 4 4 4 4 4 3 2 2 2 8 10 11 11 11 10 10 10
11 12 12 12 12 10 8 6 6 5 5 5 4 5 6 4 5 4 3 3 3 3 3 3 3 4 4 3 3 4 4 3 3 2 2 5 8 10 11 10 10 10 9
13 12 11 13 12 11 9 8 7 6 5 5 5 6 6 5 5 5 4 4 3 3 3 3 4 4 3 3 3 3 2 2 2 2 1 2 5 8 10 10 10 10 9
11 10 11 12 12 13 12 10 7 6 6 6 6 6 7 6 6 6 5 5 4 4 4 3 3 3 3 3 3 2 2 1 1 1 0 0 1 4 9 11 11 11 10
8 9 11 9 12 13 12 10 7 7 7 6 6 6 8 8 8 7 6 6 5 5 4 4 4 3 3 3 2 1 1 1 0 0 1 1 1 1 4 10 11 12 12
9 9 11 12 13 14 12 9 8 7 8 7 7 7 9 10 9 8 7 6 7 6 5 5 3 3 3 3 2 1 0 0 1 1 2 2 2 2 2 6 9 11 13
9 9 10 11 12 11 10 8 7 8 8 7 7 8 10 10 11 9 7 7 7 6 6 6 5 3 3 4 3 1 1 1 2 3 4 3 3 4 3 3 4 6 12
9 11 12 13 13 11 9 10 10 10 8 7 8 9 11 11 12 11 8 8 9 9 9 9 5 5 3 3 3 1 2 3 4 5 4 4 5 5 4 5 4 3 5
10 12 12 14 12 13 12 9 6 6 5 6 6 8 11 12 13 11 12 10 10 9 9 10 7 5 4 6 5 3 3 4 8 9 6 7 8 5 6 7 6 6 5
8 11 11 13 13 12 11 5 3 3 2 4 7 8 9 11 12 12 13 11 11 11 11 13 13 12 9 9 6 6 5 8 3 3 8 9 9 8 8 7 9 9 8
6 6 8 8 9 9 9 8 10 10 10 10 7 6 7 9 10 12 12 13 12 11 11 12 14 11 9 9 7 6 5 2 4 3 3 6 9 11 12 11 11 10 10
2 1 3 4 5 6 8 9 10 10 9 4 3 5 6 7 9 10 11 11 12 11 12 12 13 13 11 11 9 6 6 3 3 4 6 4 5 10 12 12 9 9 11
5 4 2 1 1 3 5 7 9 10 8 5 5 5 5 4 6 8 9 10 10 10 11 12 13 15 13 12 10 8 7 6 8 9 12 8 7 6 8 9 11 11 10
Wind_Direction
156 161 140 129 120 115 110 104 101 100 100 100 100 99 96 93 91 88 87 88 88 88 86 84 82 79 77 76 75 75 74 74 75 75 77 78 78 78 76 73 70 68 75
146 151 137 129 124 120 115 110 106 104 103 102 103 101 99 97 94 92 91 92 91 90 89 87 85 83 81 81 81 79 77 76 73 72 73 75 78 79 78 77 77 78 77
135 138 132 130 128 124 120 116 112 109 106 105 106 104 103 100 98 95 95 94 93 91 90 90 88 87 85 84 84 82 79 77 74 71 67 57 75 80 80 79 80 80 80
136 135 135 134 133 130 125 121 117 112 108 108 108 107 105 103 100 98 97 96 94 92 91 91 90 90 88 86 85 83 80 77 72 67 54 53 69 80 80 79 79 79 80
135 135 141 140 139 134 129 125 121 117 114 112 111 109 106 104 101 100 98 96 95 94 93 92 92 91 89 88 86 85 82 77 70 59 52 54 65 79 78 77 76 75 76
135 138 147 144 143 139 135 131 127 123 119 115 113 110 108 106 105 103 101 99 96 96 95 95 94 92 91 90 89 87 85 78 64 51 52 57 69 82 81 79 77 75 75
140 142 151 147 145 144 141 137 132 128 123 118 114 112 111 110 110 109 107 103 100 98 98 98 97 95 93 92 90 88 86 81 68 57 57 63 79 84 82 80 78 77 76
145 146 150 150 148 147 144 141 137 133 129 124 120 118 117 116 116 115 113 109 106 103 102 101 100 98 96 95 93 88 81 76 73 65 64 73 87 86 84 82 80 80 79
144 145 148 148 150 150 145 142 140 137 134 131 127 122 119 119 120 117 117 116 113 110 108 105 104 104 102 99 95 90 83 79 68 66 74 79 92 91 89 87 86 85 85
151 153 151 149 147 145 144 146 142 138 134 129 122 118 117 117 116 114 115 120 119 116 113 110 108 106 103 100 96 91 83 75 67 66 71 93 97 96 94 92 92 92 92
171 169 163 158 154 148 146 149 145 140 134 126 122 122 113 107 107 110 121 124 124 121 118 115 111 106 100 97 95 90 81 74 73 69 81 103 102 100 100 100 99 98 98
185 183 178 173 165 157 154 143 141 136 133 129 129 125 117 116 116 116 124 123 121 118 119 118 114 105 95 84 84 83 77 78 75 73 101 112 110 108 108 107 107 106 105
187 187 187 183 175 169 160 156 150 141 139 140 142 137 130 121 118 112 112 111 106 100 94 103 96 88 92 96 91 85 85 80 75 75 106 118 120 119 119 118 117 116 115
186 193 191 187 183 180 170 170 166 162 162 163 161 153 146 142 141 140 134 129 115 106 111 104 104 103 98 99 105 103 96 94 93 88 111 126 132 133 132 131 129 127 125
195 196 194 191 190 186 180 181 180 180 178 174 168 169 164 161 162 157 153 148 140 132 134 131 126 124 116 107 102 109 110 107 108 108 121 133 147 149 147 147 145 142 139
203 199 194 196 195 192 191 191 190 188 181 175 181 182 176 171 169 168 169 168 164 156 148 145 144 137 128 120 112 107 109 105 106 113 113 147 161 166 165 163 161 159 156
204 197 196 197 197 198 199 199 195 192 186 187 190 187 185 181 178 178 179 183 178 158 145 134 129 122 128 128 126 118 109 99 112 127 134 147 200 189 182 179 177 175 173
199 198 198 195 199 203 203 202 201 198 194 196 192 191 194 191 187 184 188 193 174 162 159 157 152 146 154 156 152 142 118 110 151 243 253 249 250 240 210 195 191 190 188
204 199 198 199 201 204 204 203 205 203 202 200 195 196 198 198 194 193 197 192 174 173 173 172 168 160 169 167 153 128 64 257 265 266 249 245 247 242 242 219 204 200 200
211 205 203 203 205 202 202 203 207 211 210 204 201 201 198 200 199 199 200 189 179 179 183 185 176 161 159 157 144 144 285 269 260 250 244 244 245 241 235 236 219 214 211
210 208 208 207 206 198 202 207 211 216 212 209 207 202 201 202 200 201 201 193 189 194 196 189 169 166 157 143 130 224 266 245 243 237 231 234 237 236 236 231 224 220 220
213 213 213 212 206 203 207 207 207 206 207 210 206 207 204 204 202 203 204 200 196 198 195 188 174 173 172 176 171 163 250 269 241 229 219 227 231 226 230 227 220 218 217
221 216 215 214 210 207 203 185 173 174 184 201 212 215 211 207 205 205 206 205 201 200 201 198 194 187 194 197 192 175 188 230 234 241 227 226 224 225 228 226 225 221 218
241 229 220 215 209 204 192 192 198 209 219 221 217 214 207 207 210 210 209 208 206 206 207 203 201 202 193 199 210 225 220 189 193 255 251 235 228 229 228 225 224 223 219
321 263 221 208 205 196 192 199 205 219 227 222 204 210 212 211 214 214 213 212 212 211 211 206 202 204 207 207 199 198 213 224 225 233 260 243 234 235 230 226 225 224 220
27 33 44 114 179 183 189 197 207 219 222 217 213 216 219 220 223 223 221 220 218 216 214 212 208 209 213 217 213 201 188 192 204 215 240 239 235 237 231 226 225 225 223